Time,TemperatureF,DewpointF,PressureIn,WindDirection,WindDirectionDegrees,WindSpeedMPH,WindSpeedGustMPH,Humidity,HourlyPrecipIn,Conditions,Clouds,dailyrainin,SoftwareType,DateUTC
2014-08-22 00:00:00,83.1,76.7,30.12,SE,131,0.0,4.0,81,0.00,,,0.00,Wunderground v.1.15,2014-08-22 04:00:00,
2014-08-22 00:06:00,83.1,76.7,30.13,SE,131,0.0,4.0,81,0.00,,,0.00,Wunderground v.1.15,2014-08-22 04:06:00,
2014-08-22 00:10:00,83.1,76.7,30.13,SE,131,0.0,0.0,81,0.00,,,0.00,Wunderground v.1.15,2014-08-22 04:10:00,
2014-08-22 00:15:00,83.1,76.7,30.13,SE,131,0.0,0.0,81,0.00,,,0.00,Wunderground v.1.15,2014-08-22 04:15:00,
2014-08-22 00:20:00,83.1,76.7,30.12,SE,131,0.0,0.0,81,0.00,,,0.00,Wunderground v.1.15,2014-08-22 04:20:00,
2014-08-22 00:25:00,83.1,76.7,30.12,SE,131,0.0,0.0,81,0.00,,,0.00,Wunderground v.1.15,2014-08-22 04:25:00,
2014-08-22 00:30:00,83.1,76.7,30.12,SE,131,0.0,0.0,81,0.00,,,0.00,Wunderground v.1.15,2014-08-22 04:30:00,
2014-08-22 00:35:00,83.0,76.9,30.12,SE,131,0.0,2.0,82,0.00,,,0.00,Wunderground v.1.15,2014-08-22 04:35:00,
2014-08-22 00:40:00,83.0,76.6,30.12,SE,131,0.0,2.0,81,0.00,,,0.00,Wunderground v.1.15,2014-08-22 04:40:00,
2014-08-22 00:45:00,83.2,76.8,30.12,SE,124,0.0,2.0,81,0.00,,,0.00,Wunderground v.1.15,2014-08-22 04:45:00,
2014-08-22 00:50:00,83.3,76.9,30.11,SE,124,0.0,2.0,81,0.00,,,0.00,Wunderground v.1.15,2014-08-22 04:50:00,
2014-08-22 00:55:00,83.3,76.9,30.11,SE,124,0.0,2.0,81,0.00,,,0.00,Wunderground v.1.15,2014-08-22 04:55:00,
2014-08-22 01:00:00,83.2,76.8,30.12,SE,124,0.0,2.0,81,0.00,,,0.00,Wunderground v.1.15,2014-08-22 05:00:00,
2014-08-22 01:06:00,83.2,76.8,30.11,SE,124,0.0,2.0,81,0.00,,,0.00,Wunderground v.1.15,2014-08-22 05:06:00,
2014-08-22 01:15:00,83.0,76.6,30.11,SE,124,0.0,0.0,81,0.00,,,0.00,Wunderground v.1.15,2014-08-22 05:15:00,
2014-08-22 01:20:00,82.9,76.8,30.11,SE,124,0.0,0.0,82,0.00,,,0.00,Wunderground v.1.15,2014-08-22 05:20:00,
2014-08-22 01:25:00,83.0,76.9,30.11,SE,124,0.0,0.0,82,0.00,,,0.00,Wunderground v.1.15,2014-08-22 05:25:00,
2014-08-22 01:30:00,82.9,76.8,30.11,SE,124,0.0,0.0,82,0.00,,,0.00,Wunderground v.1.15,2014-08-22 05:30:00,
2014-08-22 01:35:00,82.8,76.7,30.10,SE,124,0.0,1.0,82,0.00,,,0.00,Wunderground v.1.15,2014-08-22 05:35:00,
2014-08-22 01:40:00,82.7,76.6,30.10,SE,124,0.0,1.0,82,0.00,,,0.00,Wunderground v.1.15,2014-08-22 05:40:00,
2014-08-22 01:45:00,82.7,76.6,30.10,SE,124,0.0,1.0,82,0.00,,,0.00,Wunderground v.1.15,2014-08-22 05:45:00,
2014-08-22 01:55:00,82.7,77.0,30.09,SE,124,0.0,1.0,83,0.00,,,0.00,Wunderground v.1.15,2014-08-22 05:55:00,
2014-08-22 02:00:00,82.6,76.9,30.09,SE,124,0.0,1.0,83,0.00,,,0.00,Wunderground v.1.15,2014-08-22 06:00:00,
2014-08-22 02:06:00,82.5,76.8,30.10,SE,124,0.0,1.0,83,0.00,,,0.00,Wunderground v.1.15,2014-08-22 06:06:00,
2014-08-22 02:11:00,82.4,76.7,30.10,NE,44,0.0,0.0,83,0.00,,,0.00,Wunderground v.1.15,2014-08-22 06:11:00,
2014-08-22 02:20:00,82.4,76.7,30.09,North,11,0.0,0.0,83,0.00,,,0.00,Wunderground v.1.15,2014-08-22 06:20:00,
2014-08-22 02:30:00,82.3,77.0,30.09,NNW,328,0.0,0.0,84,0.00,,,0.00,Wunderground v.1.15,2014-08-22 06:30:00,
2014-08-22 02:35:00,82.4,77.1,30.09,North,8,0.0,1.0,84,0.00,,,0.00,Wunderground v.1.15,2014-08-22 06:35:00,
2014-08-22 02:40:00,82.4,77.1,30.09,North,9,0.0,1.0,84,0.00,,,0.00,Wunderground v.1.15,2014-08-22 06:40:00,
2014-08-22 02:45:00,82.4,77.1,30.08,North,9,0.0,1.0,84,0.00,,,0.00,Wunderground v.1.15,2014-08-22 06:45:00,
2014-08-22 02:50:00,82.2,76.9,30.08,North,9,0.0,1.0,84,0.00,,,0.00,Wunderground v.1.15,2014-08-22 06:50:00,
2014-08-22 02:56:00,82.1,76.8,30.08,North,9,0.0,1.0,84,0.00,,,0.00,Wunderground v.1.15,2014-08-22 06:56:00,
2014-08-22 03:01:00,82.2,77.2,30.08,North,360,0.0,1.0,85,0.00,,,0.00,Wunderground v.1.15,2014-08-22 07:01:00,
2014-08-22 03:06:00,82.1,77.1,30.08,NE,47,1.0,2.0,85,0.00,,,0.00,Wunderground v.1.15,2014-08-22 07:06:00,
2014-08-22 03:15:00,81.9,76.6,30.07,ENE,68,2.0,5.0,84,0.00,,,0.00,Wunderground v.1.15,2014-08-22 07:15:00,
2014-08-22 03:20:00,81.9,76.2,30.07,ENE,72,1.0,1.0,83,0.00,,,0.00,Wunderground v.1.15,2014-08-22 07:20:00,
2014-08-22 03:25:00,81.8,76.1,30.07,ENE,61,0.0,1.0,83,0.00,,,0.00,Wunderground v.1.15,2014-08-22 07:25:00,
2014-08-22 03:35:00,81.4,75.4,30.07,SE,136,1.0,3.0,82,0.00,,,0.00,Wunderground v.1.15,2014-08-22 07:35:00,
2014-08-22 03:40:00,81.2,75.2,30.07,North,11,2.0,2.0,82,0.00,,,0.00,Wunderground v.1.15,2014-08-22 07:40:00,
2014-08-22 03:45:00,81.1,75.1,30.07,SSE,153,1.0,2.0,82,0.00,,,0.00,Wunderground v.1.15,2014-08-22 07:45:00,
2014-08-22 03:50:00,81.0,75.0,30.07,SSE,165,1.0,1.0,82,0.00,,,0.00,Wunderground v.1.15,2014-08-22 07:50:00,
2014-08-22 03:55:00,81.0,75.0,30.07,South,169,0.0,2.0,82,0.00,,,0.00,Wunderground v.1.15,2014-08-22 07:55:00,
2014-08-22 04:06:00,80.8,74.8,30.07,SSE,168,0.0,2.0,82,0.00,,,0.00,Wunderground v.1.15,2014-08-22 08:06:00,
2014-08-22 04:15:00,80.8,74.4,30.07,East,96,0.0,0.0,81,0.00,,,0.00,Wunderground v.1.15,2014-08-22 08:15:00,
2014-08-22 04:20:00,80.8,74.4,30.06,East,98,0.0,0.0,81,0.00,,,0.00,Wunderground v.1.15,2014-08-22 08:20:00,
2014-08-22 04:25:00,80.7,74.3,30.06,East,96,0.0,0.0,81,0.00,,,0.00,Wunderground v.1.15,2014-08-22 08:25:00,
2014-08-22 04:30:00,80.8,74.0,30.06,East,96,0.0,0.0,80,0.00,,,0.00,Wunderground v.1.15,2014-08-22 08:30:00,
2014-08-22 04:40:00,80.7,74.3,30.06,East,88,0.0,6.0,81,0.00,,,0.00,Wunderground v.1.15,2014-08-22 08:40:00,
2014-08-22 04:45:00,80.5,74.1,30.06,SE,134,0.0,6.0,81,0.00,,,0.00,Wunderground v.1.15,2014-08-22 08:45:00,
2014-08-22 04:50:00,80.4,74.4,30.05,SE,134,0.0,6.0,82,0.00,,,0.00,Wunderground v.1.15,2014-08-22 08:50:00,
2014-08-22 04:55:00,80.3,74.3,30.05,SE,134,0.0,6.0,82,0.00,,,0.00,Wunderground v.1.15,2014-08-22 08:55:00,
2014-08-22 05:00:00,80.1,74.5,30.05,SE,134,0.0,6.0,83,0.00,,,0.00,Wunderground v.1.15,2014-08-22 09:00:00,
2014-08-22 05:06:00,80.0,74.4,30.05,SE,134,0.0,6.0,83,0.00,,,0.00,Wunderground v.1.15,2014-08-22 09:06:00,
2014-08-22 05:15:00,79.8,74.5,30.05,SE,134,0.0,0.0,84,0.00,,,0.00,Wunderground v.1.15,2014-08-22 09:15:00,
2014-08-22 05:20:00,79.7,74.4,30.05,SE,134,0.0,0.0,84,0.00,,,0.00,Wunderground v.1.15,2014-08-22 09:20:00,
2014-08-22 05:25:00,79.7,74.4,30.06,SE,132,0.0,0.0,84,0.00,,,0.00,Wunderground v.1.15,2014-08-22 09:25:00,
2014-08-22 05:30:00,79.7,74.4,30.05,SE,132,0.0,0.0,84,0.00,,,0.00,Wunderground v.1.15,2014-08-22 09:30:00,
2014-08-22 05:35:00,79.7,74.4,30.06,SE,132,0.0,2.0,84,0.00,,,0.00,Wunderground v.1.15,2014-08-22 09:35:00,
2014-08-22 05:45:00,79.8,74.9,30.06,SE,132,0.0,2.0,85,0.00,,,0.00,Wunderground v.1.15,2014-08-22 09:45:00,
2014-08-22 05:50:00,79.8,74.9,30.06,SE,126,0.0,2.0,85,0.00,,,0.00,Wunderground v.1.15,2014-08-22 09:50:00,
2014-08-22 05:55:00,79.8,74.9,30.06,SE,126,0.0,2.0,85,0.00,,,0.00,Wunderground v.1.15,2014-08-22 09:55:00,
2014-08-22 06:00:00,79.7,74.8,30.05,SE,127,0.0,2.0,85,0.00,,,0.00,Wunderground v.1.15,2014-08-22 10:00:00,
2014-08-22 06:06:00,79.7,74.8,30.05,SE,127,0.0,2.0,85,0.00,,,0.00,Wunderground v.1.15,2014-08-22 10:06:00,
2014-08-22 06:16:00,79.6,74.7,30.06,SE,127,0.0,0.0,85,0.00,,,0.00,Wunderground v.1.15,2014-08-22 10:16:00,
2014-08-22 06:21:00,79.5,74.6,30.06,SE,127,0.0,0.0,85,0.00,,,0.00,Wunderground v.1.15,2014-08-22 10:21:00,
2014-08-22 06:26:00,79.4,74.5,30.06,SE,127,0.0,0.0,85,0.00,,,0.00,Wunderground v.1.15,2014-08-22 10:26:00,
2014-08-22 06:31:00,79.4,74.5,30.06,SE,127,0.0,0.0,85,0.00,,,0.00,Wunderground v.1.15,2014-08-22 10:31:00,
2014-08-22 06:36:00,79.5,74.6,30.06,SE,127,0.0,0.0,85,0.00,,,0.00,Wunderground v.1.15,2014-08-22 10:36:00,
2014-08-22 06:41:00,79.5,74.6,30.06,SE,127,0.0,0.0,85,0.00,,,0.00,Wunderground v.1.15,2014-08-22 10:41:00,
2014-08-22 06:50:00,79.7,74.8,30.06,SE,126,0.0,0.0,85,0.00,,,0.00,Wunderground v.1.15,2014-08-22 10:50:00,
2014-08-22 06:55:00,79.8,74.9,30.06,SE,126,0.0,0.0,85,0.00,,,0.00,Wunderground v.1.15,2014-08-22 10:55:00,
2014-08-22 07:00:00,79.8,74.9,30.06,SE,126,0.0,0.0,85,0.00,,,0.00,Wunderground v.1.15,2014-08-22 11:00:00,
2014-08-22 07:06:00,79.9,75.0,30.06,NNE,20,0.0,0.0,85,0.00,,,0.00,Wunderground v.1.15,2014-08-22 11:06:00,
2014-08-22 07:16:00,80.1,75.2,30.06,NNE,25,0.0,1.0,85,0.00,,,0.00,Wunderground v.1.15,2014-08-22 11:16:00,
2014-08-22 07:21:00,80.2,75.3,30.06,NNE,25,0.0,0.0,85,0.00,,,0.00,Wunderground v.1.15,2014-08-22 11:21:00,
2014-08-22 07:26:00,80.4,75.5,30.07,NNE,25,0.0,0.0,85,0.00,,,0.00,Wunderground v.1.15,2014-08-22 11:26:00,
2014-08-22 07:31:00,80.5,75.6,30.07,NNE,25,0.0,0.0,85,0.00,,,0.00,Wunderground v.1.15,2014-08-22 11:31:00,
2014-08-22 07:36:00,80.6,75.7,30.07,NNE,25,0.0,0.0,85,0.00,,,0.00,Wunderground v.1.15,2014-08-22 11:36:00,
2014-08-22 07:41:00,81.0,76.1,30.07,NNE,25,0.0,0.0,85,0.00,,,0.00,Wunderground v.1.15,2014-08-22 11:41:00,
2014-08-22 07:46:00,81.3,76.0,30.07,NNE,23,0.0,0.0,84,0.00,,,0.00,Wunderground v.1.15,2014-08-22 11:46:00,
2014-08-22 07:55:00,82.3,77.0,30.08,North,1,0.0,0.0,84,0.00,,,0.00,Wunderground v.1.15,2014-08-22 11:55:00,
2014-08-22 08:00:00,82.5,76.8,30.08,NNE,22,1.0,3.0,83,0.00,,,0.00,Wunderground v.1.15,2014-08-22 12:00:00,
2014-08-22 08:06:00,82.8,77.1,30.08,NNW,347,1.0,3.0,83,0.00,,,0.00,Wunderground v.1.15,2014-08-22 12:06:00,
2014-08-22 08:16:00,83.1,77.0,30.08,NNE,33,2.0,2.0,82,0.00,,,0.00,Wunderground v.1.15,2014-08-22 12:16:00,
2014-08-22 08:26:00,83.5,77.1,30.08,North,358,2.0,3.0,81,0.00,,,0.00,Wunderground v.1.15,2014-08-22 12:26:00,
2014-08-22 08:31:00,84.0,77.5,30.08,NE,45,2.0,2.0,81,0.00,,,0.00,Wunderground v.1.15,2014-08-22 12:31:00,
2014-08-22 08:36:00,84.9,77.7,30.08,NE,45,1.0,2.0,79,0.00,,,0.00,Wunderground v.1.15,2014-08-22 12:36:00,
2014-08-22 08:41:00,85.2,77.9,30.08,NNE,19,1.0,1.0,79,0.00,,,0.00,Wunderground v.1.15,2014-08-22 12:41:00,
2014-08-22 08:46:00,85.7,78.0,30.08,ENE,60,1.0,3.0,78,0.00,,,0.00,Wunderground v.1.15,2014-08-22 12:46:00,
2014-08-22 08:51:00,85.6,77.6,30.09,ENE,74,1.0,1.0,77,0.00,,,0.00,Wunderground v.1.15,2014-08-22 12:51:00,
2014-08-22 09:00:00,86.1,78.0,30.09,SSW,210,2.0,2.0,77,0.00,,,0.00,Wunderground v.1.15,2014-08-22 13:00:00,
2014-08-22 09:06:00,86.7,77.4,30.08,SE,134,1.0,2.0,74,0.00,,,0.00,Wunderground v.1.15,2014-08-22 13:06:00,
2014-08-22 09:15:00,87.9,78.6,30.09,SE,136,0.0,1.0,74,0.00,,,0.00,Wunderground v.1.15,2014-08-22 13:15:00,
2014-08-22 09:20:00,87.7,77.5,30.09,ENE,68,1.0,3.0,72,0.00,,,0.00,Wunderground v.1.15,2014-08-22 13:20:00,
2014-08-22 09:25:00,87.7,78.0,30.09,SE,124,1.0,3.0,73,0.00,,,0.00,Wunderground v.1.15,2014-08-22 13:25:00,
2014-08-22 09:31:00,87.5,76.9,30.09,SE,135,2.0,2.0,71,0.00,,,0.00,Wunderground v.1.15,2014-08-22 13:31:00,
2014-08-22 09:36:00,87.2,77.1,30.09,ESE,120,2.0,4.0,72,0.00,,,0.00,Wunderground v.1.15,2014-08-22 13:36:00,
2014-08-22 09:41:00,87.1,76.5,30.09,ESE,117,2.0,2.0,71,0.00,,,0.00,Wunderground v.1.15,2014-08-22 13:41:00,
2014-08-22 09:46:00,87.4,76.8,30.09,SE,131,2.0,4.0,71,0.00,,,0.00,Wunderground v.1.15,2014-08-22 13:46:00,
2014-08-22 09:51:00,87.9,77.3,30.09,South,173,1.0,1.0,71,0.00,,,0.00,Wunderground v.1.15,2014-08-22 13:51:00,
2014-08-22 09:56:00,88.7,77.2,30.09,SE,131,2.0,4.0,69,0.00,,,0.00,Wunderground v.1.15,2014-08-22 13:56:00,
2014-08-22 10:06:00,88.9,77.0,30.09,South,172,3.0,3.0,68,0.00,,,0.00,Wunderground v.1.15,2014-08-22 14:06:00,
2014-08-22 10:15:00,88.7,76.3,30.09,SE,133,4.0,4.0,67,0.00,,,0.00,Wunderground v.1.15,2014-08-22 14:15:00,
2014-08-22 10:20:00,89.2,76.8,30.09,SSE,148,3.0,3.0,67,0.00,,,0.00,Wunderground v.1.15,2014-08-22 14:20:00,
2014-08-22 10:25:00,89.7,77.3,30.10,ESE,115,2.0,6.0,67,0.00,,,0.00,Wunderground v.1.15,2014-08-22 14:25:00,
2014-08-22 10:30:00,89.6,76.3,30.09,SSW,193,2.0,3.0,65,0.00,,,0.00,Wunderground v.1.15,2014-08-22 14:30:00,
2014-08-22 10:36:00,89.5,76.2,30.09,East,99,3.0,5.0,65,0.00,,,0.00,Wunderground v.1.15,2014-08-22 14:36:00,
2014-08-22 10:41:00,89.5,76.2,30.09,NE,39,2.0,5.0,65,0.00,,,0.00,Wunderground v.1.15,2014-08-22 14:41:00,
2014-08-22 10:46:00,90.5,76.2,30.09,SE,128,2.0,5.0,63,0.00,,,0.00,Wunderground v.1.15,2014-08-22 14:46:00,
2014-08-22 10:51:00,90.3,76.0,30.09,East,98,2.0,5.0,63,0.00,,,0.00,Wunderground v.1.15,2014-08-22 14:51:00,
2014-08-22 10:56:00,90.2,74.9,30.09,ESE,117,3.0,5.0,61,0.00,,,0.00,Wunderground v.1.15,2014-08-22 14:56:00,
2014-08-22 11:01:00,90.2,74.9,30.09,ESE,123,3.0,3.0,61,0.00,,,0.00,Wunderground v.1.15,2014-08-22 15:01:00,